Regional Weather Roundup
Issued by NWS Memphis, TN

Home | Current Version | Previous Version | Text Only | Print | Product List | Glossary On
Versions: 1 2 3 4 5 6 7 8 9 10 11 12 13 14 15 16 17 18 19 20 21 22 23 24 25 26 27 28 29 30 31 32 33 34 35 36 37 38 39 40 41 42 43 44 45 46 47 48 49 50
000
ASUS44 KMEG 041110
RWRMEG
MEMPHIS CWA HOURLY WEATHER ROUNDUP
NATIONAL WEATHER SERVICE MEMPHIS TN
600 AM CDT TUE AUG 04 2015

...WEST TENNESSEE...

CITY           SKY/WX    TMP DP  RH WIND       PRES   REMARKS
MEMPHIS INTL   PTCLDY    79  69  71 CALM      29.98R
NWS MEMPHIS      N/A     73 N/A N/A MISG        N/A
JACKSON        PTCLDY    70  67  90 CALM      29.98R
LEXINGTON      CLEAR     70  68  94 CALM      29.98R
DYERSBURG        N/A    N/A N/A N/A MISG        N/A
PARIS          CLEAR     68  66  94 CALM      29.99R


...EASTERN ARKANSAS...

CITY           SKY/WX    TMP DP  RH WIND       PRES   REMARKS
JONESBORO      CLEAR     72  70  93 CALM      29.96R
WEST MEMPHIS   CLEAR     73  73 100 CALM      29.96R
BATESVILLE     CLEAR     72  68  88 CALM      29.97R
NEWPORT        CLEAR     75  72  91 CALM      29.98R
WALNUT RIDGE   CLEAR     73  70  88 CALM      29.96R
BLYTHEVILLE    PTCLDY    74  73  97 SW6       29.96R
SEARCY         CLEAR     70  69  97 CALM      29.98R
STUTTGART      CLEAR     77  72  83 CALM      29.97R
PINE BLUFF     CLEAR     71  70  96 S3        29.97R
MONTICELLO     CLEAR     74  70  87 CALM      29.96S


...NORTH MISSISSIPPI...

CITY           SKY/WX    TMP DP  RH WIND       PRES   REMARKS
TUPELO         PTCLDY    75  72  90 CALM      29.98R
OLIVE BRANCH     N/A     73  73 100 CALM      29.99R
TUNICA         FOG       72  70  94 S3        29.98R VSB 1/2
CLARKSDALE       N/A     73  73 100 CALM      29.98R VSB 1/2
CORINTH          N/A     70  68  94 CALM      29.98R FOG
GREENWOOD      CLEAR     70  66  87 CALM      29.97R
COLUMBUS       PTCLDY    71  69  94 CALM      29.98R
STARKVILLE     FAIR      68  66  94 CALM      29.99R
GOLDEN TRIANGL CLEAR     70  64  83 CALM      29.97R


...SOUTHEAST MISSOURI...

CITY           SKY/WX    TMP DP  RH WIND       PRES   REMARKS
WEST PLAINS    CLEAR     69  65  86 CALM      30.02R
POPLAR BLUFF   PTCLDY    73  72  96 CALM      29.94R
CAPE GIRARDEAU CLEAR     72  71  97 S3        29.94S


...NORTHWEST ALABAMA...

CITY           SKY/WX    TMP DP  RH WIND       PRES   REMARKS
MUSCLE SHOALS  PTCLDY    71  67  87 CALM      30.00R


...MIDDLE TENNESSEE...

CITY           SKY/WX    TMP DP  RH WIND       PRES   REMARKS
NASHVILLE      PTCLDY    72  68  87 CALM      29.99R
CLARKSVILLE    CLEAR     70  68  93 CALM      29.98R FOG
COLUMBIA       CLEAR    N/A N/A N/A CALM      29.99R


...WESTERN KENTUCKY...

CITY           SKY/WX    TMP DP  RH WIND       PRES   REMARKS
PADUCAH        PTCLDY    72  70  93 CALM      29.95R
FORT CAMPBELL  CLEAR     70  68  94 CALM      29.97R


...CENTRAL ARKANSAS...

CITY           SKY/WX    TMP DP  RH WIND       PRES   REMARKS
LITTLE ROCK    PTCLDY    74  69  85 CALM      29.97R


SKY/WX REPORTED AS FAIR MEANS FEW OR NO CLOUDS BELOW
12 THOUSAND FEET.




USA.gov is the U.S. government's official web portal to all federal, state and local government web resources and services.